FW9881 Weather Reports


time (UTC)temp
C
wind
direction
speed
KPH
gust
KPH
rain 1hr
cm
rain 24hr
cm
rain mn
cm
humidity
%
barometer
mb
20260507070225 7 347 1.6 3.2 0.00 0.76 0.00 90 1010.5
20260507064225 7 356 1.6 4.8 0.00 0.76 0.00 90 1010.4
20260507062225 7 336 4.8 11.3 0.00 0.76 0.00 91 1010.4
20260507062125 7 341 3.2 4.8 0.00 0.76 0.00 91 1010.3
20260507062026 7 334 3.2 8.0 0.00 0.76 0.00 91 1010.4
20260507061123 7 321 1.6 3.2 0.00 0.76 0.00 91 1010.8
20260507060125 7 304 1.6 4.8 0.00 0.76 0.00 91 1010.8
20260507055126 7 247 0.0 0.0 0.00 0.76 0.00 90 1010.8
20260507055040 7 247 0.0 1.6 0.00 0.76 0.00 91 1010.9
20260507054124 7 157 0.0 0.0 0.00 0.76 0.00 91 1010.8
20260507054025 7 157 0.0 0.0 0.00 0.76 0.00 91 1010.8
20260507053925 7 157 0.0 0.0 0.00 0.76 0.00 90 1010.8
20260507053025 7 157 0.0 0.0 0.00 0.76 0.00 91 1011.0
20260507052025 7 157 0.0 0.0 0.00 0.76 0.00 91 1010.8
20260507050927 7 157 1.6 3.2 0.00 0.76 0.00 91 1010.9
20260507045925 8 135 0.0 1.6 0.00 0.76 0.00 91 1010.9
20260507044925 8 336 3.2 4.8 0.00 0.76 0.00 91 1010.8
20260507044824 8 11 3.2 6.4 0.00 0.76 0.00 91 1010.7
20260507044725 8 22 3.2 6.4 0.00 0.76 0.00 91 1010.6
20260507043725 8 178 0.0 1.6 0.00 0.76 0.00 90 1010.5
20260507043639 8 337 0.0 1.6 0.00 0.76 0.00 90 1010.4
20260507043525 8 337 0.0 3.2 0.00 0.76 0.00 90 1010.4
20260507041624 8 108 1.6 3.2 0.00 0.76 0.00 91 1010.5
20260507041524 8 337 0.0 1.6 0.00 0.76 0.00 91 1010.6
20260507041425 8 354 3.2 3.2 0.00 0.76 0.00 91 1010.5
20260507040424 8 180 0.0 0.0 0.00 0.76 0.00 91 1011.0
20260507035446 8 113 3.2 4.8 0.00 0.76 0.76 90 1010.8
20260507033630 8 337 0.0 0.0 0.00 0.76 0.76 91 1010.5
20260507033534 8 337 0.0 0.0 0.03 0.76 0.76 90 1010.5
20260507033431 8 325 1.6 4.8 0.03 0.76 0.76 90 1010.4
20260507032433 9 257 0.0 3.2 0.05 0.76 0.76 91 1010.3
20260507031532 9 284 4.8 6.4 0.08 0.76 0.76 91 1010.5
20260507025631 10 226 0.0 0.0 0.08 0.76 0.76 90 1010.5
20260507024730 10 184 0.0 3.2 0.10 0.76 0.76 91 1010.4
20260507023731 10 258 6.4 11.3 0.10 0.76 0.76 91 1010.4
20260507023630 10 230 4.8 11.3 0.10 0.76 0.71 91 1010.5
20260507022631 11 294 1.6 4.8 0.05 0.71 0.71 91 1010.3
20260507021730 11 298 4.8 11.3 0.03 0.69 0.69 91 1010.2
20260507020830 11 239 3.2 8.0 0.05 0.69 0.69 91 1009.6
20260507020730 11 187 3.2 11.3 0.05 0.69 0.69 90 1009.7
20260507020632 11 304 1.6 6.4 0.05 0.69 0.69 91 1009.7
20260507015730 11 353 1.6 6.4 0.08 0.69 0.69 91 1009.6
20260507015646 11 354 3.2 9.7 0.08 0.69 0.69 91 1009.7
20260507014731 12 326 1.6 4.8 0.08 0.66 0.66 90 1009.5
20260507013730 12 323 4.8 9.7 0.15 0.66 0.66 89 1009.3
20260507011732 13 331 6.4 11.3 0.15 0.66 0.66 89 1009.0
20260507011633 13 351 8.0 16.1 0.15 0.66 0.66 89 1009.1
20260507010631 13 276 1.6 3.2 0.13 0.64 0.64 89 1009.0
20260507010532 13 292 0.0 3.2 0.13 0.64 0.64 89 1008.9
20260507005530 13 251 0.0 3.2 0.10 0.61 0.61 89 1008.7
20260507004531 13 225 0.0 0.0 0.05 0.56 0.56 89 1008.5
20260507002532 14 198 1.6 4.8 0.00 0.51 0.51 89 1008.3
20260507001532 14 244 3.2 8.0 0.00 0.51 0.51 89 1008.1
20260507000531 13 211 0.0 3.2 0.00 0.51 0.51 89 1008.2
20260506235530 13 259 3.2 8.0 0.00 0.56 0.51 88 1008.1
20260506235432 13 249 1.6 8.0 0.00 0.56 0.51 89 1008.1
20260506234432 13 224 1.6 3.2 0.00 0.56 0.51 89 1007.9
20260506233431 13 223 3.2 11.3 0.00 0.56 0.51 89 1007.9
20260506232448 13 148 1.6 9.7 0.00 0.56 0.51 88 1007.8
20260506231431 13 155 4.8 8.0 0.00 0.56 0.51 88 1007.9
20260506230431 13 223 3.2 6.4 0.00 0.56 0.51 88 1008.0
20260506225529 13 227 4.8 8.0 0.00 0.56 0.51 89 1007.9
20260506224531 13 196 1.6 4.8 0.00 0.56 0.51 90 1008.0
20260506224433 13 173 3.2 4.8 0.00 0.56 0.51 89 1007.9
20260506223530 13 165 6.4 17.7 0.00 0.56 0.51 90 1008.1
20260506222532 14 183 6.4 12.9 0.00 0.56 0.51 90 1008.1
20260506221533 14 203 1.6 4.8 0.00 0.56 0.51 90 1008.1
20260506220631 14 247 3.2 8.0 0.00 0.56 0.51 90 1008.2
20260506215634 14 200 4.8 12.9 0.00 0.56 0.51 90 1008.1
20260506213829 14 206 6.4 14.5 0.00 0.56 0.51 89 1008.1
20260506213731 14 140 4.8 11.3 0.00 0.56 0.51 90 1008.1
20260506212731 14 220 4.8 9.7 0.00 0.56 0.51 89 1008.1
20260506211731 15 200 6.4 17.7 0.00 0.56 0.51 88 1008.1
20260506210730 14 193 1.6 3.2 0.00 0.56 0.51 89 1008.2
20260506205747 14 161 6.4 14.5 0.03 0.56 0.51 89 1008.1
20260506203832 15 182 3.2 16.1 0.08 0.56 0.51 89 1008.4
20260506203732 15 207 8.0 22.5 0.08 0.56 0.51 89 1008.5
20260506202732 15 204 6.4 11.3 0.10 0.56 0.51 89 1008.5
20260506201830 15 210 4.8 14.5 0.15 0.56 0.51 89 1008.5
20260506200830 15 190 3.2 14.5 0.23 0.56 0.51 89 1008.7
20260506200731 15 203 1.6 4.8 0.23 0.56 0.51 89 1008.7
20260506195747 15 208 6.4 12.9 0.20 0.53 0.48 89 1008.7
20260506195646 15 177 4.8 11.3 0.23 0.53 0.48 88 1008.8
20260506193730 15 219 1.6 6.4 0.18 0.48 0.43 88 1009.0
20260506191731 15 112 0.0 1.6 0.13 0.41 0.33 88 1009.1
20260506190830 15 202 0.0 3.2 0.08 0.33 0.28 89 1009.2
20260506185830 15 243 3.2 6.4 0.10 0.33 0.28 89 1009.1
20260506185733 15 219 4.8 8.0 0.10 0.33 0.25 89 1009.2
20260506183831 15 174 4.8 8.0 0.13 0.30 0.25 88 1009.1
20260506182829 15 135 0.0 1.6 0.13 0.28 0.23 89 1009.6
20260506181830 15 337 0.0 0.0 0.18 0.28 0.23 89 1009.8
20260506180831 15 206 3.2 9.7 0.18 0.25 0.20 89 1010.1
20260506175847 15 220 1.6 3.2 0.15 0.23 0.18 89 1010.1
20260506174931 15 287 0.0 1.6 0.15 0.20 0.15 89 1010.2
20260506174832 15 157 0.0 0.0 0.15 0.20 0.15 88 1010.2
20260506173831 15 148 1.6 6.4 0.13 0.18 0.13 88 1010.5
20260506173729 15 145 1.6 6.4 0.13 0.18 0.13 88 1010.4
20260506173633 15 176 3.2 4.8 0.13 0.18 0.13 88 1010.6
20260506172631 15 212 1.6 6.4 0.08 0.13 0.08 87 1010.6
20260506172530 15 191 0.0 3.2 0.08 0.13 0.08 86 1010.7
20260506171531 15 213 4.8 8.0 0.05 0.10 0.05 84 1010.6
20260506165631 16 233 3.2 6.4 0.00 0.05 0.00 81 1010.6
20260506164633 16 207 8.0 14.5 0.00 0.05 0.00 79 1010.4
20260506164530 16 237 6.4 12.9 0.00 0.05 0.00 78 1010.6
20260506163531 17 234 4.8 11.3 0.00 0.05 0.00 76 1010.4
20260506161630 17 200 1.6 4.8 0.00 0.05 0.00 75 1010.5
20260506160630 17 183 3.2 20.9 0.00 0.05 0.00 75 1010.8
20260506155646 17 241 4.8 14.5 0.00 0.05 0.00 74 1011.0
20260506154630 17 177 8.0 17.7 0.00 0.05 0.00 75 1011.0
20260506154545 17 194 4.8 11.3 0.00 0.05 0.00 75 1011.1
20260506153530 17 214 9.7 16.1 0.00 0.05 0.00 74 1011.1
20260506152532 17 167 6.4 11.3 0.00 0.05 0.00 75 1011.3
20260506152446 17 253 3.2 6.4 0.00 0.05 0.00 74 1011.4
20260506151531 17 201 4.8 9.7 0.00 0.05 0.00 74 1011.4
20260506150532 17 159 4.8 9.7 0.00 0.05 0.00 74 1011.5
20260506144530 17 196 6.4 9.7 0.00 0.05 0.00 73 1011.3
20260506142630 18 134 3.2 11.3 0.00 0.05 0.00 72 1011.5
20260506141729 18 273 1.6 8.0 0.00 0.05 0.00 72 1011.4
20260506140729 17 191 9.7 17.7 0.00 0.05 0.00 74 1011.1
20260506135730 17 169 6.4 11.3 0.00 0.05 0.00 75 1011.1
20260506134732 17 142 6.4 12.9 0.00 0.05 0.00 77 1011.2
20260506131731 16 226 6.4 9.7 0.00 0.05 0.00 80 1011.9
20260506125731 16 207 8.0 17.7 0.00 0.05 0.00 80 1011.9
20260506125630 16 245 8.0 17.7 0.00 0.05 0.00 80 1012.1
20260506124629 15 234 9.7 19.3 0.00 0.05 0.00 81 1012.0
20260506123729 15 219 9.7 16.1 0.00 0.05 0.00 81 1012.0
20260506122729 15 216 6.4 11.3 0.00 0.05 0.00 81 1012.2
20260506121731 15 230 8.0 17.7 0.00 0.05 0.00 82 1011.8
20260506120731 15 238 4.8 9.7 0.00 0.05 0.00 82 1011.9
20260506115829 15 247 4.8 9.7 0.00 0.05 0.00 81 1011.8
20260506114832 15 229 6.4 17.7 0.00 0.05 0.00 82 1012.1
20260506113846 15 240 8.0 12.9 0.00 0.05 0.00 82 1012.3
20260506112929 15 161 1.6 4.8 0.00 0.05 0.00 83 1012.1
20260506111932 15 236 6.4 12.9 0.00 0.05 0.00 82 1012.3
20260506111831 15 223 4.8 8.0 0.00 0.05 0.00 83 1012.3
20260506105931 14 191 4.8 9.7 0.00 0.05 0.00 82 1012.2
20260506103931 14 239 3.2 6.4 0.00 0.05 0.00 83 1012.0
20260506102931 13 238 4.8 8.0 0.00 0.05 0.00 84 1012.0
20260506101030 13 222 8.0 16.1 0.00 0.05 0.00 84 1012.1
20260506100051 13 225 4.8 8.0 0.00 0.05 0.00 84 1011.9
20260506095946 13 192 4.8 8.0 0.00 0.05 0.00 84 1011.8
20260506095030 13 221 3.2 6.4 0.00 0.05 0.00 83 1011.9
20260506094032 13 218 6.4 14.5 0.00 0.05 0.00 83 1011.7
20260506093129 13 226 6.4 16.1 0.00 0.05 0.00 83 1012.0
20260506092130 13 209 6.4 16.1 0.00 0.05 0.00 83 1011.8
20260506091130 13 205 4.8 12.9 0.00 0.05 0.00 83 1011.8
20260506090131 13 157 6.4 11.3 0.00 0.05 0.00 82 1011.8
20260506084230 13 240 4.8 11.3 0.00 0.05 0.00 82 1011.9
20260506084128 13 216 3.2 4.8 0.00 0.05 0.00 81 1011.9
20260506083131 13 232 1.6 6.4 0.00 0.05 0.00 81 1012.0
20260506082131 13 247 1.6 6.4 0.00 0.05 0.00 80 1012.1
20260506081129 13 221 1.6 8.0 0.00 0.05 0.00 78 1012.0
20260506081029 13 214 1.6 8.0 0.00 0.05 0.00 79 1012.1
20260506072031 15 219 1.6 4.8 0.00 0.05 0.00 75 1012.2
20260506071030 15 236 4.8 9.7 0.00 0.05 0.00 73 1012.3